CW5619 Weather Reports


time (UTC)temp
C
wind
direction
speed
KPH
gust
KPH
rain 1hr
cm
rain 24hr
cm
rain mn
cm
humidity
%
barometer
mb
20260507225403 32 209 8.0 24.1 0.00 0.00 0.00 12 1009.6
20260507224903 33 217 4.8 24.1 0.00 0.00 0.00 12 1009.8
20260507224403 33 208 3.2 8.0 0.00 0.00 0.00 12 1009.6
20260507223903 32 345 3.2 16.1 0.00 0.00 0.00 12 1009.7
20260507223403 33 207 3.2 16.1 0.00 0.00 0.00 11 1009.7
20260507222903 33 221 4.8 16.1 0.00 0.00 0.00 12 1009.8
20260507222403 33 86 4.8 19.3 0.00 0.00 0.00 12 1009.9
20260507221903 33 276 3.2 19.3 0.00 0.00 0.00 12 1010.0
20260507221403 33 200 4.8 14.5 0.00 0.00 0.00 11 1010.0
20260507220903 33 267 3.2 14.5 0.00 0.00 0.00 11 1010.1
20260507220403 33 29 3.2 14.5 0.00 0.00 0.00 12 1010.2
20260507215902 32 13 8.0 14.5 0.00 0.00 0.00 12 1010.1
20260507215402 33 91 3.2 12.9 0.00 0.00 0.00 12 1010.3
20260507214904 32 222 4.8 12.9 0.00 0.00 0.00 12 1010.2
20260507214403 32 191 3.2 11.3 0.00 0.00 0.00 13 1010.3
20260507213903 32 229 4.8 14.5 0.00 0.00 0.00 13 1010.4
20260507213403 32 234 3.2 16.1 0.00 0.00 0.00 13 1010.4
20260507212902 33 229 4.8 16.1 0.00 0.00 0.00 12 1010.6
20260507212403 33 234 4.8 12.9 0.00 0.00 0.00 12 1010.7
20260507211903 33 71 3.2 14.5 0.00 0.00 0.00 12 1010.7
20260507211403 33 187 4.8 14.5 0.00 0.00 0.00 13 1010.9
20260507210902 33 226 4.8 14.5 0.00 0.00 0.00 12 1010.9
20260507210402 33 2 6.4 19.3 0.00 0.00 0.00 12 1011.1
20260507205903 32 314 4.8 19.3 0.00 0.00 0.00 12 1011.0
20260507205402 32 197 8.0 14.5 0.00 0.00 0.00 11 1011.0
20260507204404 32 217 4.8 16.1 0.00 0.00 0.00 11 1011.1
20260507203903 32 236 4.8 11.3 0.00 0.00 0.00 11 1011.3
20260507203403 32 240 3.2 12.9 0.00 0.00 0.00 11 1011.4
20260507202904 32 238 4.8 19.3 0.00 0.00 0.00 11 1011.4
20260507202402 33 215 6.4 19.3 0.00 0.00 0.00 11 1011.4
20260507201902 32 2 3.2 16.1 0.00 0.00 0.00 11 1011.5
20260507201403 32 90 3.2 16.1 0.00 0.00 0.00 11 1011.7
20260507200904 32 244 3.2 14.5 0.00 0.00 0.00 11 1011.6
20260507195903 32 201 3.2 16.1 0.00 0.00 0.00 10 1011.7
20260507195403 32 228 6.4 16.1 0.00 0.00 0.00 11 1011.8
20260507193903 32 226 4.8 9.7 0.00 0.00 0.00 11 1012.0
20260507192903 32 242 1.6 4.8 0.00 0.00 0.00 11 1012.2
20260507192403 31 269 1.6 4.8 0.00 0.00 0.00 12 1012.3
20260507191903 31 337 1.6 4.8 0.00 0.00 0.00 12 1012.4
20260507191403 31 323 1.6 8.0 0.00 0.00 0.00 12 1012.5
20260507190903 31 355 3.2 11.3 0.00 0.00 0.00 12 1012.7
20260507190403 31 253 3.2 11.3 0.00 0.00 0.00 13 1012.8
20260507185903 31 279 3.2 8.0 0.00 0.00 0.00 13 1012.6
20260507185403 31 7 3.2 8.0 0.00 0.00 0.00 14 1012.7
20260507184903 30 67 3.2 8.0 0.00 0.00 0.00 14 1012.8
20260507183903 29 219 1.6 8.0 0.00 0.00 0.00 14 1012.9
20260507183403 30 223 3.2 8.0 0.00 0.00 0.00 14 1013.0
20260507182403 29 214 3.2 4.8 0.00 0.00 0.00 14 1013.1
20260507181903 29 222 1.6 8.0 0.00 0.00 0.00 15 1013.3
20260507181403 28 217 3.2 8.0 0.00 0.00 0.00 15 1013.4
20260507180903 28 215 1.6 4.8 0.00 0.00 0.00 15 1013.5
20260507180403 27 94 0.0 4.8 0.00 0.00 0.00 14 1013.6
20260507175902 28 124 3.2 4.8 0.00 0.00 0.00 16 1013.4
20260507175403 28 63 3.2 4.8 0.00 0.00 0.00 17 1013.5
20260507174903 27 55 1.6 4.8 0.00 0.00 0.00 18 1013.5
20260507174403 28 349 3.2 4.8 0.00 0.00 0.00 18 1013.6
20260507173903 28 329 3.2 8.0 0.00 0.00 0.00 18 1013.6
20260507173403 27 321 3.2 8.0 0.00 0.00 0.00 19 1013.8
20260507172904 27 56 1.6 4.8 0.00 0.00 0.00 19 1013.8
20260507172403 27 58 1.6 4.8 0.00 0.00 0.00 20 1013.9
20260507171902 26 0 0.0 4.8 0.00 0.00 0.00 20 1014.0
20260507171403 26 209 0.0 4.8 0.00 0.00 0.00 20 1014.0
20260507170403 26 252 1.6 4.8 0.00 0.00 0.00 20 1014.0
20260507165903 26 251 1.6 4.8 0.00 0.00 0.00 20 1014.1
20260507165403 25 40 1.6 4.8 0.00 0.00 0.00 21 1014.1
20260507164903 25 147 1.6 4.8 0.00 0.00 0.00 22 1014.2
20260507164403 25 5 1.6 3.2 0.00 0.00 0.00 21 1014.2
20260507163403 24 333 1.6 4.8 0.00 0.00 0.00 22 1014.2
20260507162903 24 221 0.0 4.8 0.00 0.00 0.00 22 1014.4
20260507162403 23 152 1.6 12.9 0.00 0.00 0.00 23 1014.3
20260507161904 23 128 4.8 12.9 0.00 0.00 0.00 24 1014.4
20260507161403 23 111 1.6 4.8 0.00 0.00 0.00 24 1014.4
20260507160903 23 140 1.6 4.8 0.00 0.00 0.00 24 1014.4
20260507160403 23 195 1.6 4.8 0.00 0.00 0.00 25 1014.6
20260507155903 23 168 1.6 4.8 0.00 0.00 0.00 24 1014.6
20260507155403 23 148 3.2 8.0 0.00 0.00 0.00 24 1014.7
20260507153903 22 143 1.6 8.0 0.00 0.00 0.00 25 1014.7
20260507152903 21 140 3.2 11.3 0.00 0.00 0.00 26 1014.7
20260507152402 21 116 3.2 4.8 0.00 0.00 0.00 26 1014.7
20260507151902 21 157 1.6 8.0 0.00 0.00 0.00 28 1014.7
20260507151404 20 120 1.6 11.3 0.00 0.00 0.00 28 1014.8
20260507150903 20 136 4.8 11.3 0.00 0.00 0.00 28 1014.8
20260507150404 20 108 1.6 4.8 0.00 0.00 0.00 29 1014.8
20260507144403 19 101 3.2 4.8 0.00 0.00 0.00 31 1014.8
20260507143903 18 116 1.6 4.8 0.00 0.00 0.00 32 1014.9
20260507143403 18 148 1.6 4.8 0.00 0.00 0.00 32 1014.9
20260507142903 18 140 3.2 4.8 0.00 0.00 0.00 31 1014.9
20260507142403 18 58 1.6 4.8 0.00 0.00 0.00 32 1014.9
20260507141903 18 139 1.6 4.8 0.00 0.00 0.00 34 1015.0
20260507141403 17 111 1.6 4.8 0.00 0.00 0.00 35 1015.0
20260507140903 17 128 3.2 4.8 0.00 0.00 0.00 34 1014.9
20260507135903 17 113 1.6 4.8 0.00 0.00 0.00 35 1014.9
20260507135403 17 131 1.6 4.8 0.00 0.00 0.00 36 1014.9
20260507134903 16 104 0.0 4.8 0.00 0.00 0.00 37 1014.8
20260507134403 16 81 1.6 4.8 0.00 0.00 0.00 37 1014.8
20260507133903 16 108 1.6 4.8 0.00 0.00 0.00 39 1014.9
20260507133403 15 95 1.6 3.2 0.00 0.00 0.00 40 1014.8
20260507132403 15 85 1.6 3.2 0.00 0.00 0.00 42 1014.6
20260507131403 13 99 0.0 3.2 0.00 0.00 0.00 47 1014.5
20260507130403 13 101 0.0 0.0 0.00 0.00 0.00 48 1014.4
20260507125903 13 101 0.0 0.0 0.00 0.00 0.00 47 1014.3
20260507125403 13 101 0.0 0.0 0.00 0.00 0.00 47 1014.3
20260507124903 13 101 0.0 1.6 0.00 0.00 0.00 46 1014.3
20260507124403 13 101 0.0 1.6 0.00 0.00 0.00 46 1014.3
20260507123403 13 101 0.0 1.6 0.00 0.00 0.00 45 1014.3
20260507122903 13 101 0.0 1.6 0.00 0.00 0.00 44 1014.2
20260507122404 14 101 0.0 1.6 0.00 0.00 0.00 44 1014.3
20260507121403 14 101 0.0 4.8 0.00 0.00 0.00 42 1014.2
20260507120903 15 107 0.0 4.8 0.00 0.00 0.00 41 1014.2
20260507115903 15 107 1.6 4.8 0.00 0.00 0.00 40 1014.2
20260507115404 15 115 1.6 8.0 0.00 0.00 0.00 40 1014.1
20260507114903 15 95 3.2 8.0 0.00 0.00 0.00 40 1014.1
20260507114403 15 161 3.2 8.0 0.00 0.00 0.00 41 1014.2
20260507113903 14 93 3.2 8.0 0.00 0.00 0.00 43 1014.2
20260507113403 13 114 1.6 3.2 0.00 0.00 0.00 46 1014.2
20260507112904 13 105 0.0 3.2 0.00 0.00 0.00 47 1014.2
20260507111904 13 90 0.0 4.8 0.00 0.00 0.00 48 1014.2
20260507111403 13 93 1.6 3.2 0.00 0.00 0.00 48 1014.2
20260507110403 13 325 0.0 1.6 0.00 0.00 0.00 48 1014.1
20260507105903 13 325 0.0 3.2 0.00 0.00 0.00 47 1014.1
20260507105403 13 325 0.0 3.2 0.00 0.00 0.00 47 1014.1
20260507104903 14 320 0.0 1.6 0.00 0.00 0.00 46 1014.1
20260507104403 13 320 0.0 1.6 0.00 0.00 0.00 46 1014.1
20260507103403 14 320 0.0 1.6 0.00 0.00 0.00 46 1014.2
20260507102903 14 320 0.0 1.6 0.00 0.00 0.00 45 1014.1
20260507101903 14 320 0.0 1.6 0.00 0.00 0.00 44 1014.2
20260507101403 15 320 0.0 1.6 0.00 0.00 0.00 43 1014.3
20260507100903 15 320 0.0 3.2 0.00 0.00 0.00 42 1014.3
20260507100403 15 321 0.0 3.2 0.00 0.00 0.00 41 1014.4
20260507095903 15 32 0.0 1.6 0.00 0.00 0.00 42 1014.3
20260507094903 15 35 0.0 1.6 0.00 0.00 0.00 42 1014.4
20260507094403 15 35 0.0 1.6 0.00 0.00 0.00 42 1014.5
20260507093903 15 35 0.0 1.6 0.00 0.00 0.00 41 1014.5
20260507093403 15 35 0.0 1.6 0.00 0.00 0.00 40 1014.4
20260507092903 15 30 0.0 1.6 0.00 0.00 0.00 40 1014.5
20260507090903 15 30 0.0 1.6 0.00 0.00 0.00 38 1014.5
20260507090403 15 30 0.0 1.6 0.00 0.00 0.00 38 1014.5
20260507085903 15 30 0.0 1.6 0.00 0.00 0.00 38 1014.5
20260507085403 15 30 0.0 1.6 0.00 0.00 0.00 38 1014.5
20260507084902 15 30 0.0 1.6 0.00 0.00 0.00 38 1014.5
20260507084403 15 30 0.0 0.0 0.00 0.00 0.00 40 1014.6
20260507083902 15 30 0.0 0.0 0.00 0.00 0.00 42 1014.6
20260507083404 15 30 0.0 0.0 0.00 0.00 0.00 42 1014.6
20260507082903 15 30 0.0 0.0 0.00 0.00 0.00 42 1014.7
20260507081903 15 30 0.0 0.0 0.00 0.00 0.00 42 1014.8
20260507081403 15 30 0.0 0.0 0.00 0.00 0.00 41 1014.8
20260507080903 15 30 0.0 1.6 0.00 0.00 0.00 41 1014.8
20260507075903 15 30 0.0 1.6 0.00 0.00 0.00 41 1014.7
20260507075403 15 30 0.0 0.0 0.00 0.00 0.00 41 1014.7
20260507074903 16 30 0.0 0.0 0.00 0.00 0.00 41 1014.7
20260507074403 16 30 0.0 0.0 0.00 0.00 0.00 40 1014.7
20260507073903 16 30 0.0 0.0 0.00 0.00 0.00 40 1014.9
20260507073403 16 30 0.0 1.6 0.00 0.00 0.00 40 1014.8
20260507072904 16 30 0.0 1.6 0.00 0.00 0.00 41 1014.9
20260507072403 16 30 0.0 1.6 0.00 0.00 0.00 41 1014.9
20260507071903 16 30 0.0 1.6 0.00 0.00 0.00 41 1014.8
20260507071403 16 30 0.0 0.0 0.00 0.00 0.00 42 1014.9
20260507070403 16 30 0.0 0.0 0.00 0.00 0.00 42 1014.9
20260507065903 16 30 0.0 3.2 0.00 0.00 0.00 39 1014.8
20260507065402 16 30 0.0 3.2 0.00 0.00 0.00 38 1014.9
20260507064903 16 30 0.0 3.2 0.00 0.00 0.00 38 1014.8
20260507064403 17 30 1.6 3.2 0.00 0.00 0.00 37 1014.9
20260507063903 17 30 1.6 3.2 0.00 0.00 0.00 36 1014.8
20260507062904 17 30 0.0 3.2 0.00 0.00 0.00 35 1014.7
20260507062403 17 45 0.0 3.2 0.00 0.00 0.00 34 1014.7
20260507061902 17 45 0.0 3.2 0.00 0.00 0.00 34 1014.7
20260507061404 17 36 0.0 3.2 0.00 0.00 0.00 33 1014.8
20260507060903 17 37 0.0 3.2 0.00 0.00 0.00 33 1014.7
20260507060404 17 37 0.0 3.2 0.00 0.00 0.00 33 1014.6
20260507055903 18 37 0.0 3.2 0.00 0.00 0.00 32 1014.7
20260507054903 18 41 1.6 3.2 0.00 0.00 0.00 32 1014.8
20260507054402 18 42 0.0 1.6 0.00 0.00 0.00 32 1014.8
20260507053403 18 41 0.0 3.2 0.00 0.00 0.00 31 1014.8
20260507052903 18 41 0.0 3.2 0.00 0.00 0.00 31 1014.7
20260507050903 18 59 0.0 1.6 0.00 0.00 0.00 32 1014.6
20260507050403 18 59 0.0 1.6 0.00 0.00 0.00 32 1014.6
20260507045403 18 101 0.0 0.0 0.00 0.00 0.00 32 1014.5
20260507044904 18 101 0.0 0.0 0.00 0.00 0.00 32 1014.5
20260507044403 18 106 0.0 1.6 0.00 0.00 0.00 31 1014.5
20260507043903 18 106 0.0 1.6 0.00 0.00 0.00 30 1014.5
20260507043403 19 126 0.0 0.0 0.00 0.00 0.00 29 1014.5
20260507042903 19 126 0.0 1.6 0.00 0.00 0.00 29 1014.4
20260507042403 19 126 0.0 1.6 0.00 0.00 0.00 28 1014.5
20260507041903 20 126 0.0 1.6 0.00 0.00 0.00 27 1014.4
20260507041403 20 126 0.0 1.6 0.00 0.00 0.00 27 1014.3
20260507040403 20 126 0.0 3.2 0.00 0.00 0.00 27 1014.3
20260507035903 20 126 1.6 3.2 0.00 0.00 0.00 28 1014.2
20260507035403 20 142 1.6 3.2 0.00 0.00 0.00 26 1014.2
20260507034903 21 155 0.0 1.6 0.00 0.00 0.00 25 1014.1
20260507033903 21 139 0.0 1.6 0.00 0.00 0.00 24 1013.9
20260507033403 21 137 0.0 3.2 0.00 0.00 0.00 23 1013.8
20260507032903 21 191 1.6 3.2 0.00 0.00 0.00 23 1013.8
20260507031402 22 274 0.0 1.6 0.00 0.00 0.00 23 1013.7
20260507030904 22 274 0.0 1.6 0.00 0.00 0.00 22 1013.6
20260507030404 22 293 0.0 1.6 0.00 0.00 0.00 22 1013.5
20260507025903 22 287 0.0 1.6 0.00 0.00 0.00 21 1013.4
20260507025403 22 287 0.0 3.2 0.00 0.00 0.00 21 1013.4
20260507024403 23 305 0.0 4.8 0.00 0.00 0.00 20 1013.2
20260507023903 23 267 1.6 4.8 0.00 0.00 0.00 20 1013.2
20260507023403 23 288 1.6 4.8 0.00 0.00 0.00 19 1013.3
20260507022903 23 193 1.6 4.8 0.00 0.00 0.00 19 1013.2
20260507022403 23 351 1.6 4.8 0.00 0.00 0.00 19 1013.2
20260507021903 23 260 1.6 8.0 0.00 0.00 0.00 18 1013.1
20260507021404 24 271 1.6 8.0 0.00 0.00 0.00 18 1013.1
20260507020903 24 283 1.6 8.0 0.00 0.00 0.00 18 1013.1
20260507020403 24 236 1.6 8.0 0.00 0.00 0.00 18 1013.1
20260507015904 24 261 1.6 8.0 0.00 0.00 0.00 18 1013.0
20260507015403 25 197 3.2 8.0 0.00 0.00 0.00 18 1013.0
20260507013403 25 166 1.6 8.0 0.00 0.00 0.00 17 1013.0
20260507012903 25 231 3.2 8.0 0.00 0.00 0.00 17 1012.9
20260507011903 25 174 1.6 11.3 0.00 0.00 0.00 17 1012.9
20260507011402 25 223 4.8 12.9 0.00 0.00 0.00 17 1013.0
20260507010903 25 274 1.6 12.9 0.00 0.00 0.00 18 1012.9
20260507010403 25 240 4.8 11.3 0.00 0.00 0.00 18 1012.9
20260507005403 26 215 3.2 16.1 0.00 0.00 0.00 17 1013.0
20260507004903 26 220 3.2 16.1 0.00 0.00 0.00 17 1012.9
20260507003903 26 249 4.8 12.9 0.00 0.00 0.00 17 1012.9
20260507003404 26 250 3.2 11.3 0.00 0.00 0.00 18 1012.8
20260507002903 26 230 3.2 12.9 0.00 0.00 0.00 18 1012.8
20260507002403 26 189 4.8 12.9 0.00 0.00 0.00 17 1012.8
20260507001903 26 144 3.2 14.5 0.00 0.00 0.00 18 1012.9
20260507001403 26 170 3.2 14.5 0.00 0.00 0.00 18 1012.8
20260507000903 26 298 3.2 12.9 0.00 0.00 0.00 18 1012.9
20260507000405 27 225 4.8 8.0 0.00 0.00 0.00 18 1012.9
20260506235903 26 237 4.8 14.5 0.00 0.00 0.00 18 1012.9
20260506235403 26 262 4.8 14.5 0.00 0.00 0.00 18 1012.8
20260506234903 26 239 3.2 11.3 0.00 0.00 0.00 18 1012.9
20260506234403 27 338 3.2 11.3 0.00 0.00 0.00 18 1012.8
20260506233904 27 324 4.8 11.3 0.00 0.00 0.00 18 1012.8
20260506232903 27 210 3.2 11.3 0.00 0.00 0.00 18 1012.8
20260506232403 27 215 4.8 14.5 0.00 0.00 0.00 18 1012.9
20260506230903 27 198 3.2 11.3 0.00 0.00 0.00 18 1013.0
20260506230403 27 240 3.2 11.3 0.00 0.00 0.00 18 1013.1